Regional Weather Roundup
Issued by NWS Wakefield, VA

Home | Current Version | Previous Version | Graphics & Text | Print | Product List | Glossary On
Versions: 1 2 3 4 5 6 7 8 9 10 11 12 13 14 15 16 17 18 19 20 21 22 23 24 25 26 27 28 29 30 31 32 33 34 35 36 37 38 39 40 41 42 43 44 45 46 47 48 49 50
000
ASUS41 KAKQ 220915
RWRAKQ

REGIONAL WEATHER ROUNDUP
NATIONAL WEATHER SERVICE WAKEFIELD VA
500 AM EDT MON MAY 22 2017

Note: "fair" indicates few or no clouds below 12,000 feet with no
significant weather and/or obstructions to visibility. * = Denotes
station may not report precipitation (e.g., rain,snow,etc.),
thunder or fog.

VAZ042-051-052>054-056-221000-
NORTHERN VIRGINIA

CITY           SKY/WX    TMP DP  RH WIND       PRES   REMARKS
WASH NATIONAL  LGT RAIN  59  58  96 CALM      30.12F
DULLES         RAIN      58  56  93 CALM      30.10F FOG
FORT BELVOIR   LGT RAIN  58  56  94 CALM      30.11F
QUANTICO       LGT RAIN  60  60 100 E7        30.11F
FREDERICKSBRG* RAIN      59  59 100 CALM      30.09F
STAFFORD*      LGT RAIN  58  58 100 NE3       30.14F
WARRENTON      HVY RAIN  58  55  89 CALM      30.10F
CULPEPER*      LGT RAIN  58  57  99 CALM      30.11F
MANASSAS*      LGT RAIN  58  57  97 CALM      30.11F
LEESBURG*      DRIZZLE   59  59 100 S5        30.11F
WINCHESTER     RAIN      55  54  94 CALM      30.08S
FRONT ROYAL*   CLOUDY    59  59 100 CALM      30.07F
LURAY*         RAIN      59  59 100 CALM      30.09F
$$

VAZ048-049-060>072-079>083-221000-
CENTRAL AND SOUTH CENTRAL VIRGINIA

CITY           SKY/WX    TMP DP  RH WIND       PRES   REMARKS
RICHMOND       CLOUDY    60  59  96 N6        30.09F FOG
CHESTERFIELD*  CLOUDY   N/A N/A N/A CALM      30.10F
PETERSBURG*    CLOUDY    60  59  96 CALM      30.09F FOG
HANOVER        CLOUDY    60  57  89 VRB3      30.10F FOG
TAPPAHANNOCK*  CLOUDY    62  62 100 CALM      30.10F FOG
QUINTON*       CLOUDY    60  60 100 N3        30.09F FOG
CHARLOTTSVILLE CLOUDY    60  59  96 N3        30.09F
GORDONSVILLE*  CLOUDY    57  57 100 CALM      30.10S FOG
ORANGE*        HVY RAIN  55  55 100 CALM      30.10F
LOUISA*        RAIN      63  61  94 CALM      30.09S
BUMPASS*       CLOUDY    57  57 100 SE3       30.10S
FARMVILLE*     LGT RAIN  62  62 100 NE3       30.08S
CREWE*         CLOUDY    60  56  87 CALM      30.08S
FORT PICKETT*  CLOUDY    60  56  88 CALM      30.09S
CHASE CITY*    CLOUDY    62  60  94 CALM      30.08S
CLARKSVILLE*   CLOUDY    64  64 100 E5        30.07S
SOUTH HILL*    CLOUDY    61  60  97 CALM      30.14S
LAWRENCEVILLE* CLOUDY    61  60  95 CALM      30.08S
EMPORIA*       CLOUDY    61  59  94 CALM      30.10S FOG
$$

VAZ088>098-221000-
SOUTHEAST VIRGINIA

CITY           SKY/WX    TMP DP  RH WIND       PRES   REMARKS
NORFOLK        CLOUDY    69  65  86 S8        30.08S
VIRGINIA BEACH CLOUDY    67  64  90 CALM      30.08R
NORFOLK NAVAL  CLOUDY    69  65  86 S6        30.09F
WEST POINT*    CLOUDY    62  61  96 CALM      30.11S
SALUDA*        CLOUDY    64  64 100 CALM      30.08F
NEWPORT NEWS   CLOUDY    68  64  87 S6        30.08F
LANGLEY AFB    CLOUDY    68  66  93 CALM      30.07F
FORT EUSTIS    CLOUDY    67  64  90 S3        30.06S
WILLIAMSBURG*  CLOUDY    66  64  94 CALM      30.09F
HR EXEC AP*    CLOUDY    64  61  88 SE5       30.06F
FRANKLIN*      CLOUDY    63  61  94 CALM      30.08F
US460-WAKEFLD  CLOUDY    63  62  97 CALM      30.08F FOG
$$

VAZ020-022-025-037-045-221000-
WEST CENTRAL AND SOUTHWEST VIRGINIA

CITY           SKY/WX    TMP DP  RH WIND       PRES   REMARKS
STAUNTON*      DRIZZLE   58  57  99 CALM      30.11F
WAYNESBORO*    CLOUDY    58  58 100 E3        30.10F
HOT SPRINGS VA DRZL/FOG  46  45  93 CALM      30.15S VSB 3/4
LYNCHBURG      LGT RAIN  60  59  96 N7        30.09F
DANVILLE       LGT RAIN  63  63 100 VRB3      30.05F FOG
SOUTH BOSTON*  CLOUDY    62  61  95 NE3       30.07S
MARTINSVILLE   HVY RAIN  60  59  96 N6        30.08F
ROANOKE        LGT RAIN  60  60 100 CALM      30.11S
BLACKSBURG     DRIZZLE   58  57  96 E5        30.13F
DUBLIN*        CLOUDY    59  56  91 CALM      30.12S
MARION*        CLOUDY    60  57  90 CALM      30.14S
HILLSVILLE*    FOG       57  57 100 CALM      30.10S VSB 3/4
RICHLANDS*     CLOUDY    61  59  94 CALM      30.10S
WISE*          NOT AVBL
ABINGDON*      CLOUDY    63  62  98 CALM      30.09S
$$

MDZ021>025-VAZ099-100-221000-
SOUTHERN MARYLAND AND THE DELMARVA PENINSULA

CITY           SKY/WX    TMP DP  RH WIND       PRES   REMARKS
PATUXENT RIVER LGT RAIN  59  59 100 N7        30.10F FOG
BAY BRIDGE APT HVY RAIN  57  57 100 NE3       30.12F FOG
LEONARDTOWN    CLOUDY    59  55  88 CALM      30.12S
DOVER          LGT RAIN  59  59 100 E5        30.11F
GEORGETOWN     CLOUDY    61  58  90 SE3       30.11F
EASTON         RAIN      58  56  93 NE5       30.15F
CAMBRIDGE        N/A     59  57  94 N6        30.11S FOG
SALISBURY      LGT RAIN  61  60  97 E3        30.10S
OCEAN CITY     LGT RAIN  61  58  90 VRB5      30.12F
WALLOPS ISLAND CLOUDY    62  61  96 SE10      30.10F
ACCOMACK*      CLOUDY    66  11  11 S7        30.10R
$$

NCZ012>017-030>032-221000-
NORTH CENTRAL AND EASTERN NORTH CAROLINA

CITY           SKY/WX    TMP DP  RH WIND       PRES   REMARKS
ROANOKE RAPIDS CLOUDY    64  63  94 CALM      30.07F
RALEIGH        LGT RAIN  69  66  90 SE7       30.05F
ELIZABETH CITY MOCLDY    71  69  93 S6        30.09R
AHOSKIE*         N/A     63  62  98 CALM      30.09S FOG
EDENTON*       CLOUDY    67  63  87 CALM      30.09S
CURRITUCK*     PTCLDY    69  69 100 CALM      30.09S
KILL DEVIL HLS NOT AVBL
MANTEO         CLOUDY    70  66  86 S7        30.09F
CAPE HATTERAS  MOCLDY    73  68  84 SE8       30.08F
TARBORO*       NOT AVBL
GOLDSBORO      CLOUDY    68  68 100 SE3       30.05S
WASHINGTON     CLOUDY    65  64  96 CALM      30.08S
GREENVILLE     CLOUDY    64  64 100 CALM      30.09S
NEW BERN       CLOUDY    69  69 100 CALM      30.08F
WILMINGTON     CLOUDY    71  69  93 S5        30.07F
$$

VAZ048-221000-
ELSEWHERE

CITY           SKY/WX    TMP DP  RH WIND       PRES   REMARKS
HARRISBURG PA  CLOUDY    57  53  86 SE10      30.10F
BALTIMORE      LGT RAIN  57  57 100 E3        30.12S
ANNAPOLIS      LGT RAIN  60  59  96 CALM      30.11S FOG
ANDREWS AFB    DRIZZLE   57  55  94 NE5       30.10F FOG
PHILADELPHIA   CLOUDY    56  52  86 E8        30.15F
HENDERSON NC   CLOUDY    63  62  95 SE3       30.07S FOG
GREENSBORO     LGT RAIN  67  67 100 SE10      29.99F FOG
ROCKY MOUNT    CLOUDY    65  65 100 CALM      30.07F
$$

VAZ100-221000-
MARINE

STATION/POSITION TIME  TEMP    WIND        PRES    WAVE   SWELL
                       AIR SEA DIR/SP/G            HT/PER HT/PER
                 (UTC) (F)     (DEG/KT/KT) (MB)    (FT/S) (FT/S)
CAPE MAY NJ      0848   58 62  110/  7/ 10 1019.4F
LEWES DE         0848   59 62  150/  6/  8 1019.4F
15NM E FENWICK I 0750   59 57  110/ 12/ 14 1020.1    5/ 6   3/ 6
OCEAN-CITY-INLET 0848   61 63  160/  8/ 11 1019.9F
WACHAPREAGUE VA  0848   65 66  170/  4/  5 1018.9R
THOMAS POINT MD  0900   58 66   70/  7/  8   N/A
GOOSES REEF MD   0850   60      50/  8/ 10 1020.3F
COVE POINT MD    0848   59      40/  7/ 10 1020.2S
SOLOMONS ISLAND  0848   60 67   10/  5/  6   N/A
BISHOPS HEAD MD  0848   62 68   50/  3/  4 1019.7S
PINEY POINT MD   0842           60/  6/  7   N/A
POTOMAC MD       0850   65     200/  2/  4 1018.3F
CAMBRIDGE MD     0842   58 69                N/A
LEWISETTA VA     0848   63 71  360/  1/  4 1018.7F
RAPPAHANNOCK LGT 0842          170/  8/  8 1019.5R
STINGRAY PT      0850   67     190/  6/  8 1018.7F
YORK RVR RNG VA  0848   68     180/  9/ 10 1017.9F
YORKTOWN VA      0848   67 69  170/  3/  4 1018.2F
JAMESTOWN VA     0850   65     160/  4/  4   N/A
DOMINION TERM VA 0848   68     150/  7/  8 1018.6F
KIPTOPEKE VA     0848      65  170/ 10/ 11   N/A
CHES BAY BRIDGE  0848   68 66  170/  8/  8 1018.7R
CAPE HENRY VA    0848   67     160/  6/  8   N/A
WILLOUBY STN VA  0848   69     160/  8/  9 1018.3F
S CRANEY ISL VA  0848   69     210/  5/  7 1018.4F
CAPE HENRY BUOY  0842      61                N/A     4/ 8
1ST LANDING BUOY 0850   68                 1019.1R
CAPE CHARLES BUO 0851      62                N/A     4/ 6
64NM E OF VA BCH 0850   69 69  150/ 10/ 12 1019.6F   6/ 8   7/ 8
DUCK PIER NC     0848   67 66  150/ 10/ 12 1018.4S
44100 DUCK FRF   0805      65                N/A     5/ 6   2/11
44056 DUCK FRF   0830      65                N/A     4/ 6   2/11
OREGON INLET NC  0842   67 69  120/  5/  6 1018.7S
HATTERAS NC      0848   74 74  140/  7/ 12 1018.4F
DIAMOND SHLS NC  0850   76 79  140/ 14/ 16 1018.6R   5/ 8   3/ 8
CAPE LOOKOUT NC  0800   72     180/  2/  2 1018.5R
$$



USA.gov is the U.S. government's official web portal to all federal, state and local government web resources and services.